Latest Weather Observations for Brisbane Airport

IDQ60801

Issued at 3:32 pm EST Monday 27 April 2015 (issued every 30 minutes, with the page automatically refreshed every 10 minutes)

About weather observations | Map of weather stations | Latest weather observations for QLD | Other Formats
Station Details ID: 040842 Name: BRISBANE AERO Lat: -27.39 Lon: 153.13 Height: 4.51 m
Data from the previous 72 hours. | See also: Recent months at Brisbane Airport
Date/Time
EST
Temp
°C
App
Temp
°C
Dew
Point
Rel
Hum
%
Delta-T
°C
Wind Press
QNH
hPa
Press
MSL
hPa
Rain
since 9 am
mm
Dir
 
Spd
km/h
Gust
km/h
Spd
kts
Gust
kts
27/03:30pm 23.1 20.1 10.6 45 6.9 NE 17 20 9 11 1016.0 - 0.0
27/03:00pm 22.7 20.0 10.3 45 6.8 ENE 15 19 8 10 1015.8 1015.8 0.0
27/02:30pm 22.9 20.2 10.5 45 6.8 E 15 20 8 11 1015.8 - 0.0
27/02:00pm 23.2 21.6 8.8 39 7.7 SSE 7 15 4 8 1015.8 - 0.0
27/01:30pm 23.6 21.1 9.8 41 7.5 WSW 13 20 7 11 1016.0 - 0.0
27/01:00pm 23.0 20.6 8.7 40 7.6 SW 11 19 6 10 1016.1 - 0.0
27/12:30pm 23.2 21.3 9.0 40 7.6 S 9 13 5 7 1016.5 - 0.0
27/12:00pm 22.8 20.0 8.4 39 7.6 S 13 20 7 11 1016.8 1016.8 0.0
27/11:30am 22.3 18.7 8.2 40 7.4 SSW 17 28 9 15 1017.3 - 0.0
27/11:00am 21.6 17.5 7.7 40 7.2 SSW 19 24 10 13 1017.6 - 0.0
27/10:30am 20.9 16.1 7.2 41 7.0 SSW 22 30 12 16 1017.9 - 0.0
27/10:00am 20.9 15.6 6.9 40 7.1 SSW 24 32 13 17 1018.1 - 0.0
27/09:30am 20.1 15.6 7.1 43 6.6 SSW 20 28 11 15 1018.2 - 0.0
27/09:00am 19.0 15.1 7.1 46 6.0 SW 17 24 9 13 1018.1 1018.1 0.0
27/08:30am 17.7 14.3 7.8 52 5.0 SW 15 19 8 10 1018.0 - 0.0
27/08:00am 15.8 13.4 8.5 62 3.7 SSW 11 15 6 8 1017.8 - 0.0
27/07:30am 14.2 11.8 8.6 69 2.8 SSW 11 15 6 8 1017.5 - 0.0
27/07:00am 12.7 10.2 8.0 73 2.3 SSW 11 15 6 8 1017.4 - 0.0
27/06:30am 11.8 9.4 7.2 73 2.2 SSW 9 11 5 6 1016.9 - 0.0
27/06:00am 11.0 8.6 7.0 76 1.9 WSW 9 13 5 7 1016.8 1016.8 0.0
27/05:30am 11.4 9.0 7.2 75 2.0 WSW 9 11 5 6 1016.3 - 0.0
27/05:00am 11.1 8.7 7.1 76 1.9 WSW 9 11 5 6 1016.0 - 0.0
27/04:30am 10.8 8.8 7.2 78 1.7 W 7 9 4 5 1015.7 - 0.0
27/04:00am 11.7 9.2 6.6 71 2.4 SW 9 11 5 6 1015.4 - 0.0
27/03:30am 11.2 8.8 6.8 74 2.1 SW 9 11 5 6 1015.3 - 0.0
27/03:00am 11.9 9.4 6.4 69 2.6 SSW 9 11 5 6 1015.1 1015.1 0.0
27/02:30am 12.3 9.7 6.1 66 2.9 WSW 9 11 5 6 1015.0 - 0.0
27/02:00am 13.0 10.9 6.5 64 3.1 WSW 7 9 4 5 1015.1 - 0.0
27/01:30am 13.1 10.2 6.4 64 3.2 WNW 11 22 6 12 1015.1 - 0.0
27/01:00am 13.0 10.2 7.0 67 2.9 NW 11 15 6 8 1015.0 - 0.0
27/12:30am 12.4 8.8 6.7 68 2.7 SW 15 17 8 9 1015.1 - 0.0
27/12:00am 13.7 9.6 6.1 60 3.6 SW 17 20 9 11 1015.5 1015.5 0.0
 
Date/Time
EST
Temp
°C
App
Temp
°C
Dew
Point
Rel
Hum
%
Delta-T
°C
Wind Press
QNH
hPa
Press
MSL
hPa
Rain
since 9 am
mm
Dir
 
Spd
km/h
Gust
km/h
Spd
kts
Gust
kts
26/11:30pm 14.4 10.2 5.8 56 4.1 WSW 17 22 9 12 1015.6 - 0.0
26/11:00pm 14.0 9.5 6.0 58 3.8 SW 19 24 10 13 1016.1 - 0.0
26/10:30pm 15.6 11.2 5.0 49 5.0 SW 17 22 9 12 1016.3 - 0.0
26/10:00pm 15.9 12.3 5.1 48 5.1 WSW 13 22 7 12 1016.2 - 0.0
26/09:30pm 16.6 12.2 4.8 45 5.6 WSW 17 22 9 12 1015.9 - 0.0
26/09:00pm 16.9 11.8 4.3 43 5.9 WSW 20 30 11 16 1015.7 1015.7 0.0
26/08:30pm 17.0 9.7 4.5 43 5.9 WSW 32 35 17 19 1015.1 - 0.0
26/08:00pm 16.7 11.7 4.6 44 5.7 W 20 26 11 14 1015.3 - 0.0
26/07:30pm 16.7 11.8 4.9 45 5.6 W 20 30 11 16 1015.2 - 0.0
26/07:00pm 17.5 12.1 4.4 42 6.2 W 22 28 12 15 1014.7 - 0.0
26/06:30pm 17.7 12.9 4.4 41 6.3 W 19 26 10 14 1014.3 - 0.0
26/05:30pm 18.8 12.5 3.7 36 7.1 W 26 35 14 19 1013.1 - 0.0
26/05:00pm 19.8 13.5 3.8 34 7.6 W 26 37 14 20 1012.5 - 0.0
26/04:30pm 20.9 14.1 2.9 30 8.5 WSW 28 37 15 20 1012.1 - 0.0
26/04:00pm 21.4 13.6 1.7 27 9.1 WSW 32 46 17 25 1011.3 - 0.0
26/03:30pm 22.4 14.2 2.6 27 9.4 WSW 35 54 19 29 1011.0 - 0.0
26/03:00pm 22.7 14.2 1.0 24 10.0 WSW 35 56 19 30 1010.5 1010.5 0.0
26/02:35pm 23.1 12.7 2.2 25 9.9 W 46 54 25 29 1010.1 - 0.0
26/02:30pm 22.9 13.5 2.1 25 9.8 SW 41 54 22 29 1010.1 - 0.0
26/02:00pm 23.0 12.1 1.6 24 10.0 SW 48 70 26 38 1010.0 - 0.0
26/01:36pm 23.0 13.4 0.9 23 10.2 WSW 41 61 22 33 1010.0 - 0.0
26/01:30pm 22.9 12.6 0.3 22 10.3 WSW 44 59 24 32 1009.9 - 0.0
26/01:00pm 22.4 13.6 1.5 25 9.7 WSW 37 56 20 30 1010.2 - 0.0
26/12:30pm 22.5 10.8 1.0 24 9.9 W 52 70 28 38 1009.9 - 0.0
26/12:05pm 22.1 10.6 0.2 23 9.9 WSW 50 69 27 37 1009.9 - 0.0
26/12:00pm 22.2 10.0 0.4 23 9.9 W 54 69 29 37 1009.9 1009.9 0.0
26/11:30am 22.0 10.0 1.5 25 9.5 W 54 72 29 39 1010.2 - 0.0
26/11:00am 21.5 11.2 2.6 28 8.9 WSW 46 65 25 35 1011.1 - 0.0
26/10:39am 21.0 10.4 3.0 30 8.5 WSW 48 70 26 38 1011.3 - 0.0
26/10:30am 20.9 11.2 2.9 30 8.5 WSW 43 54 23 29 1011.2 - 0.0
26/10:00am 20.6 10.9 3.0 31 8.3 WSW 43 54 23 29 1011.4 - 0.0
26/09:34am 19.6 9.5 3.5 34 7.6 WSW 46 67 25 36 1011.5 - 0.0
26/09:30am 19.8 9.3 3.9 35 7.6 WSW 48 59 26 32 1011.6 - 0.0
26/09:00am 19.2 9.0 3.2 34 7.5 WSW 46 61 25 33 1011.9 1011.9 0.0
26/08:53am 19.0 9.4 3.2 35 7.4 WSW 43 61 23 33 1011.9 - -
26/08:30am 18.9 9.2 2.7 34 7.5 WSW 43 54 23 29 1011.9 - -
26/08:17am 18.8 10.2 2.8 34 7.4 W 37 56 20 30 1011.8 - 0.0
26/08:00am 18.6 9.6 2.5 34 7.4 WSW 39 52 21 28 1011.9 - 0.0
26/07:30am 18.4 11.1 2.5 34 7.3 WSW 30 41 16 22 1011.7 - -
26/07:00am 17.9 10.1 2.6 36 7.0 W 33 41 18 22 1011.4 - 0.0
26/06:30am 17.6 11.1 2.5 36 6.9 W 26 35 14 19 1010.9 - -
26/06:00am 17.7 12.8 2.0 35 7.1 W 17 24 9 13 1010.7 1010.7 -
26/05:30am 17.9 13.0 2.3 35 7.1 W 17 24 9 13 1010.5 - -
26/05:00am 18.7 14.2 2.4 33 7.5 WNW 15 20 8 11 1010.1 - -
26/04:30am 19.0 13.7 2.9 34 7.5 W 20 26 11 14 1009.8 - -
26/04:00am 19.5 13.9 3.4 34 7.6 W 22 32 12 17 1009.5 - -
26/03:30am 19.3 14.4 4.9 38 7.0 W 20 28 11 15 1009.3 - -
26/03:00am 19.2 15.0 5.6 41 6.7 WNW 17 22 9 12 1009.2 1009.2 0.0
26/02:30am 19.1 15.0 6.2 43 6.4 NW 17 26 9 14 1009.1 - -
26/02:00am 18.9 14.9 8.3 50 5.5 NW 19 20 10 11 1008.9 - -
26/01:30am 16.9 14.9 11.4 70 3.0 NW 13 15 7 8 1008.8 - -
26/01:00am 15.9 15.8 14.0 88 1.1 NNW 7 13 4 7 1008.7 - -
26/12:30am 18.0 19.5 14.7 81 1.9 CALM 0 0 0 0 1008.6 - -
26/12:00am 19.2 19.0 14.6 74 2.7 WNW 9 13 5 7 1008.9 1008.9 -
 
Date/Time
EST
Temp
°C
App
Temp
°C
Dew
Point
Rel
Hum
%
Delta-T
°C
Wind Press
QNH
hPa
Press
MSL
hPa
Rain
since 9 am
mm
Dir
 
Spd
km/h
Gust
km/h
Spd
kts
Gust
kts
25/11:30pm 19.8 19.4 15.2 75 2.7 W 11 17 6 9 1009.1 - -
25/11:00pm 20.0 20.7 16.0 78 2.4 WNW 7 9 4 5 1009.2 - -
25/10:30pm 20.3 20.4 16.5 79 2.3 NNW 11 13 6 7 1009.4 - -
25/10:00pm 21.1 19.9 17.0 77 2.5 N 19 22 10 12 1009.5 - -
25/09:30pm 20.5 19.9 16.7 79 2.3 NNW 15 17 8 9 1009.7 - -
25/09:00pm 21.3 20.9 16.3 73 3.0 NW 13 15 7 8 1009.7 1009.7 0.0
25/08:30pm 21.0 20.4 16.7 76 2.6 NNW 15 15 8 8 1009.6 - -
25/08:00pm 21.6 21.5 16.9 74 2.9 NW 13 13 7 7 1009.4 - -
25/07:30pm 22.1 22.3 17.6 75 2.8 NNW 13 15 7 8 1009.2 - -
25/07:00pm 21.3 21.5 17.7 80 2.2 N 13 17 7 9 1008.9 - -
25/06:30pm 21.4 20.6 17.2 77 2.6 N 17 22 9 12 1008.4 - -
25/06:00pm 21.9 20.6 16.7 72 3.2 N 19 24 10 13 1008.0 1008.0 0.0
25/05:30pm 22.6 20.9 15.8 65 4.1 N 19 24 10 13 1007.8 - -
25/05:00pm 23.7 21.7 14.0 54 5.7 NNE 17 20 9 11 1007.6 - -
25/04:30pm 25.0 23.1 13.0 47 7.0 NNE 15 20 8 11 1007.6 - 0.0
25/04:00pm 25.7 23.4 13.0 45 7.4 NE 17 20 9 11 1007.5 - 0.0
25/03:30pm 26.1 24.5 15.0 50 6.7 NE 17 19 9 10 1007.5 - 0.0
25/03:00pm 26.5 24.2 13.0 43 7.9 NE 17 19 9 10 1007.6 1007.6 0.0
25/02:30pm 26.6 24.3 12.9 42 8.0 NE 17 20 9 11 1007.6 - -
25/02:00pm 26.8 25.1 12.3 40 8.4 NNE 13 17 7 9 1007.7 - -
25/01:30pm 26.7 24.7 12.8 42 8.1 NE 15 19 8 10 1007.9 - 0.0
25/01:00pm 27.3 25.7 13.9 43 8.0 NE 15 17 8 9 1008.3 - -
25/12:30pm 26.6 25.0 14.0 46 7.5 NNE 15 19 8 10 1008.7 - 0.0
25/12:00pm 26.9 25.1 13.3 43 8.0 NE 15 - 8 - 1009.3 - 0.0
25/11:30am 26.9 26.0 12.6 41 8.3 SW 9 - 5 - 1009.6 - 0.0
25/11:00am 26.6 25.5 12.0 40 8.4 NW 9 11 5 6 1010.0 - 0.0
25/10:30am 25.5 24.6 12.5 44 7.5 W 9 13 5 7 1010.4 - 0.0
25/10:00am 24.3 23.9 13.1 49 6.5 WSW 7 11 4 6 1010.8 - 0.0
25/09:30am 23.2 22.9 14.4 57 5.2 SSW 9 15 5 8 1011.0 - 0.0
25/09:00am 21.6 21.7 14.4 63 4.2 WSW 7 11 4 6 1011.2 1011.2 0.0
25/08:30am 19.8 19.6 14.8 73 2.9 SW 9 11 5 6 1011.2 - 0.0
25/08:00am 18.4 17.9 15.0 80 2.0 SSW 11 13 6 7 1010.8 - 0.0
25/07:30am 17.1 16.4 14.3 83 1.6 SSW 11 15 6 8 1010.9 - 0.0
25/07:00am 15.8 14.6 13.9 88 1.1 SSW 13 17 7 9 1010.7 - 0.0
25/06:30am 15.4 14.3 13.2 87 1.2 SSW 11 13 6 7 1010.2 - 0.0
25/06:00am 15.3 14.6 13.3 88 1.1 SSW 9 11 5 6 1010.0 1010.0 0.0
25/05:30am 15.3 15.2 13.9 91 0.8 SSW 7 9 4 5 1009.9 - 0.0
25/05:00am 15.6 15.2 14.2 91 0.8 SSW 9 11 5 6 1009.7 - 0.0
25/04:30am 15.5 15.8 14.4 93 0.6 S 6 9 3 5 1009.4 - 0.0
25/04:00am 15.5 15.8 14.4 93 0.6 SSW 6 9 3 5 1009.4 - 0.0
25/03:30am 16.8 18.5 15.3 91 0.9 CALM 0 0 0 0 1009.3 - 0.0
25/03:00am 16.6 16.5 15.0 90 0.9 SSW 9 11 5 6 1009.3 1009.3 0.0
25/02:30am 16.2 16.4 14.8 91 0.8 W 7 9 4 5 1009.4 - 0.0
25/02:00am 16.7 17.2 15.0 90 1.0 W 6 7 3 4 1009.4 - 0.0
25/01:30am 17.2 17.2 15.3 88 1.1 W 9 11 5 6 1009.5 - 0.0
25/01:00am 17.3 17.4 15.4 88 1.1 WNW 9 11 5 6 1009.6 - 0.0
25/12:30am 17.7 17.9 15.7 88 1.2 WNW 9 13 5 7 1009.7 - 0.0
25/12:00am 18.3 18.2 16.1 87 1.3 NNW 11 13 6 7 1009.9 1009.9 0.0
 
Date/Time
EST
Temp
°C
App
Temp
°C
Dew
Point
Rel
Hum
%
Delta-T
°C
Wind Press
QNH
hPa
Press
MSL
hPa
Rain
since 9 am
mm
Dir
 
Spd
km/h
Gust
km/h
Spd
kts
Gust
kts
24/11:30pm 18.9 18.8 16.0 83 1.7 N 11 19 6 10 1010.0 - 0.0
24/11:00pm 18.0 18.2 15.8 87 1.3 N 9 13 5 7 1009.9 - 0.0
24/10:30pm 18.3 18.4 15.6 84 1.6 NNW 9 13 5 7 1009.9 - 0.0
24/10:00pm 18.5 19.1 15.8 84 1.6 NNW 7 9 4 5 1010.1 - 0.0
24/09:30pm 20.1 20.4 15.9 77 2.5 NW 9 11 5 6 1010.2 - 0.0
24/09:00pm 20.3 20.2 16.1 77 2.5 WNW 11 17 6 9 1010.1 1010.1 0.0
24/08:30pm 20.5 20.7 16.7 79 2.3 NW 11 30 6 16 1010.0 - 0.0
24/08:00pm 20.9 20.9 17.3 80 2.2 NNW 13 22 7 12 1009.6 - 0.0
24/07:30pm 20.5 20.6 17.4 82 1.9 N 13 19 7 10 1009.4 - 0.0
24/07:00pm 20.7 20.6 16.9 79 2.3 N 13 19 7 10 1009.1 - 0.0
24/06:30pm 20.9 20.4 17.0 78 2.4 N 15 19 8 10 1008.8 - 0.0
24/06:00pm 20.5 20.4 16.9 80 2.2 N 13 17 7 9 1008.3 1008.3 0.0
24/05:30pm 21.1 20.8 16.5 75 2.8 NNE 13 15 7 8 1007.9 - 0.0
24/05:00pm 22.5 22.0 17.0 71 3.4 NNE 15 19 8 10 1007.7 - 0.0
24/04:30pm 23.6 22.9 16.4 64 4.4 NNE 15 17 8 9 1007.6 - 0.0
24/04:00pm 24.1 22.9 16.2 61 4.8 NNE 17 19 9 10 1007.6 - 0.0

Other Formats:

Comma delimited format used in spreadsheet applications
http://www.bom.gov.au/fwo/IDQ60801/IDQ60801.94578.axf

JavaScript Object Notation format (JSON) in row-major order
http://www.bom.gov.au/fwo/IDQ60801/IDQ60801.94578.json